contact:dominique.lefevre@mio.osupytheas.fr, maurice.libes@osupytheas.fr, didier.mallarino@osupytheas.fr
Project:EMSO http://www.emso-fr.org/EMSO-France
Depth: 2436.0 m
Title:EMSO Ligure Ouest : Data MII capteur MICROCAT
DateTime_Computer,Latitude,Longitude,Temperature,Conductivity,Pressure,DateTime_Instrument
DateTime_Computer,Latitude,Longitude,degC,S m-1,dbar,DateTime_Instrument
2020-04-22T00:00:16Z,42.805,6.029,13.3003,4.60031,2469.947,2020-4-22T02:00:56Z
2020-04-22T00:03:19Z,42.805,6.029,13.2996,4.59999,2469.993,2020-4-22T02:03:59Z
2020-04-22T00:06:22Z,42.805,6.029,13.3014,4.59999,2469.947,2020-4-22T02:07:02Z
2020-04-22T00:09:25Z,42.805,6.029,13.3002,4.59990,2469.984,2020-4-22T02:10:05Z
2020-04-22T00:12:28Z,42.805,6.029,13.3010,4.59998,2469.993,2020-4-22T02:13:09Z
2020-04-22T00:15:32Z,42.805,6.029,13.3000,4.60008,2469.96,2020-4-22T02:16:12Z
2020-04-22T00:18:35Z,42.805,6.029,13.3031,4.60014,2469.984,2020-4-22T02:19:15Z
2020-04-22T00:21:38Z,42.805,6.029,13.3000,4.59999,2469.984,2020-4-22T02:22:18Z
2020-04-22T00:24:41Z,42.805,6.029,13.3005,4.60002,2469.984,2020-4-22T02:25:22Z
2020-04-22T00:27:45Z,42.805,6.029,13.3003,4.60008,2469.97,2020-4-22T02:28:25Z
2020-04-22T00:30:48Z,42.805,6.029,13.3011,4.60003,2469.947,2020-4-22T02:31:28Z
2020-04-22T00:33:51Z,42.805,6.029,13.2997,4.59999,2469.923,2020-4-22T02:34:31Z
2020-04-22T00:36:54Z,42.805,6.029,13.3001,4.60002,2469.984,2020-4-22T02:37:35Z
2020-04-22T00:39:58Z,42.805,6.029,13.3004,4.59999,2469.97,2020-4-22T02:40:38Z
2020-04-22T00:43:01Z,42.805,6.029,13.3001,4.59995,2469.984,2020-4-22T02:43:41Z
2020-04-22T00:46:04Z,42.805,6.029,13.3000,4.60002,2469.97,2020-4-22T02:46:44Z
2020-04-22T00:49:07Z,42.805,6.029,13.3009,4.60001,2469.947,2020-4-22T02:49:47Z
2020-04-22T00:52:10Z,42.805,6.029,13.3008,4.59996,2469.96,2020-4-22T02:52:51Z
2020-04-22T00:55:14Z,42.805,6.029,13.2992,4.60006,2469.96,2020-4-22T02:55:54Z
2020-04-22T00:58:17Z,42.805,6.029,13.3009,4.59999,2469.96,2020-4-22T02:58:57Z
2020-04-22T01:01:20Z,42.805,6.029,13.2999,4.59999,2469.947,2020-4-22T03:02:00Z
2020-04-22T01:04:24Z,42.805,6.029,13.2998,4.60009,2469.947,2020-4-22T03:05:04Z
2020-04-22T01:07:27Z,42.805,6.029,13.3005,4.59997,2469.984,2020-4-22T03:08:07Z
2020-04-22T01:10:30Z,42.805,6.029,13.3006,4.59995,2469.984,2020-4-22T03:11:11Z
2020-04-22T01:13:34Z,42.805,6.029,13.2998,4.59999,2469.97,2020-4-22T03:14:14Z
2020-04-22T01:16:37Z,42.805,6.029,13.2996,4.60003,2469.97,2020-4-22T03:17:17Z
2020-04-22T01:19:40Z,42.805,6.029,13.2995,4.60004,2469.984,2020-4-22T03:20:20Z
2020-04-22T01:22:43Z,42.805,6.029,13.3018,4.60006,2469.96,2020-4-22T03:23:23Z
2020-04-22T01:25:47Z,42.805,6.029,13.3019,4.60016,2469.97,2020-4-22T03:26:27Z
2020-04-22T01:28:50Z,42.805,6.029,13.3019,4.60000,2469.96,2020-4-22T03:29:30Z
2020-04-22T01:31:53Z,42.805,6.029,13.3012,4.60003,2470.007,2020-4-22T03:32:33Z
2020-04-22T01:34:56Z,42.805,6.029,13.3004,4.59998,2469.993,2020-4-22T03:35:36Z
2020-04-22T01:38:00Z,42.805,6.029,13.3000,4.60001,2469.97,2020-4-22T03:38:40Z
2020-04-22T01:41:03Z,42.805,6.029,13.3012,4.60034,2469.947,2020-4-22T03:41:43Z
2020-04-22T01:44:06Z,42.805,6.029,13.3019,4.60017,2469.97,2020-4-22T03:44:46Z
2020-04-22T01:47:09Z,42.805,6.029,13.3029,4.59996,2469.993,2020-4-22T03:47:49Z
2020-04-22T01:50:13Z,42.805,6.029,13.2992,4.60019,2469.97,2020-4-22T03:50:53Z
2020-04-22T01:53:16Z,42.805,6.029,13.3006,4.60015,2469.96,2020-4-22T03:53:56Z
2020-04-22T01:56:19Z,42.805,6.029,13.2975,4.59997,2469.923,2020-4-22T03:56:59Z
2020-04-22T01:59:22Z,42.805,6.029,13.2968,4.59996,2469.97,2020-4-22T04:00:02Z
2020-04-22T02:02:26Z,42.805,6.029,13.2994,4.60007,2469.96,2020-4-22T04:03:06Z
2020-04-22T02:05:29Z,42.805,6.029,13.3014,4.59995,2469.97,2020-4-22T04:06:09Z
2020-04-22T02:08:32Z,42.805,6.029,13.3009,4.60002,2469.97,2020-4-22T04:09:12Z
2020-04-22T02:11:35Z,42.805,6.029,13.2993,4.60015,2469.993,2020-4-22T04:12:15Z
2020-04-22T02:14:39Z,42.805,6.029,13.2997,4.60019,2469.97,2020-4-22T04:15:19Z
2020-04-22T02:17:42Z,42.805,6.029,13.2975,4.60006,2469.947,2020-4-22T04:18:22Z
2020-04-22T02:20:45Z,42.805,6.029,13.2973,4.60014,2470.007,2020-4-22T04:21:25Z
2020-04-22T02:23:49Z,42.805,6.029,13.2972,4.59989,2470.017,2020-4-22T04:24:29Z
2020-04-22T02:26:52Z,42.805,6.029,13.2970,4.59996,2470.007,2020-4-22T04:27:32Z
2020-04-22T02:29:55Z,42.805,6.029,13.2967,4.59994,2469.947,2020-4-22T04:30:35Z
2020-04-22T02:32:58Z,42.805,6.029,13.2967,4.59987,2470.007,2020-4-22T04:33:38Z
2020-04-22T02:36:01Z,42.805,6.029,13.2967,4.59986,2469.993,2020-4-22T04:36:42Z
2020-04-22T02:39:05Z,42.805,6.029,13.2970,4.59980,2469.96,2020-4-22T04:39:45Z
2020-04-22T02:42:08Z,42.805,6.029,13.2966,4.59978,2469.993,2020-4-22T04:42:48Z
2020-04-22T02:45:11Z,42.805,6.029,13.2968,4.59980,2469.993,2020-4-22T04:45:51Z
2020-04-22T02:48:14Z,42.805,6.029,13.2969,4.59978,2469.947,2020-4-22T04:48:55Z
2020-04-22T02:51:18Z,42.805,6.029,13.2967,4.59977,2470.017,2020-4-22T04:51:58Z
2020-04-22T02:54:21Z,42.805,6.029,13.2968,4.59976,2469.993,2020-4-22T04:55:01Z
2020-04-22T02:57:24Z,42.805,6.029,13.2969,4.59974,2469.956,2020-4-22T04:58:04Z
2020-04-22T03:00:28Z,42.805,6.029,13.2968,4.59981,2469.993,2020-4-22T05:01:08Z
2020-04-22T03:03:31Z,42.805,6.029,13.2967,4.59977,2470.007,2020-4-22T05:04:11Z
2020-04-22T03:06:34Z,42.805,6.029,13.2964,4.59978,2470.007,2020-4-22T05:07:14Z
2020-04-22T03:09:37Z,42.805,6.029,13.2968,4.59974,2469.984,2020-4-22T05:10:18Z
2020-04-22T03:12:41Z,42.805,6.029,13.2968,4.59976,2470.017,2020-4-22T05:13:21Z
2020-04-22T03:15:44Z,42.805,6.029,13.2968,4.59978,2470.007,2020-4-22T05:16:24Z
2020-04-22T03:18:47Z,42.805,6.029,13.2964,4.59974,2470.017,2020-4-22T05:19:27Z
2020-04-22T03:21:50Z,42.805,6.029,13.2967,4.59976,2469.993,2020-4-22T05:22:30Z
2020-04-22T03:24:54Z,42.805,6.029,13.2965,4.59978,2470.007,2020-4-22T05:25:34Z
2020-04-22T03:27:57Z,42.805,6.029,13.2964,4.59981,2469.993,2020-4-22T05:28:37Z
2020-04-22T03:31:00Z,42.805,6.029,13.2964,4.59974,2470.053,2020-4-22T05:31:40Z
2020-04-22T03:34:03Z,42.805,6.029,13.2968,4.59971,2470.04,2020-4-22T05:34:43Z
2020-04-22T03:37:07Z,42.805,6.029,13.2964,4.59974,2469.993,2020-4-22T05:37:47Z
2020-04-22T03:40:10Z,42.805,6.029,13.2966,4.59973,2470.017,2020-4-22T05:40:50Z
2020-04-22T03:43:13Z,42.805,6.029,13.2963,4.59973,2470.017,2020-4-22T05:43:53Z
2020-04-22T03:46:16Z,42.805,6.029,13.2964,4.59973,2470.017,2020-4-22T05:46:56Z
2020-04-22T03:49:20Z,42.805,6.029,13.2966,4.59973,2470.017,2020-4-22T05:50:00Z
2020-04-22T03:52:23Z,42.805,6.029,13.2969,4.59973,2469.993,2020-4-22T05:53:03Z
2020-04-22T03:55:26Z,42.805,6.029,13.2970,4.59973,2470.017,2020-4-22T05:56:06Z
2020-04-22T03:58:29Z,42.805,6.029,13.2967,4.59972,2470.063,2020-4-22T05:59:09Z
2020-04-22T04:01:33Z,42.805,6.029,13.2968,4.59976,2470.04,2020-4-22T06:02:13Z
2020-04-22T04:04:36Z,42.805,6.029,13.2965,4.59978,2470.04,2020-4-22T06:05:16Z
2020-04-22T04:07:39Z,42.805,6.029,13.2964,4.59980,2470.04,2020-4-22T06:08:19Z
2020-04-22T04:10:42Z,42.805,6.029,13.2964,4.59979,2470.053,2020-4-22T06:11:22Z
2020-04-22T04:13:45Z,42.805,6.029,13.2965,4.59978,2470.017,2020-4-22T06:14:26Z
2020-04-22T04:16:49Z,42.805,6.029,13.2967,4.59979,2470.063,2020-4-22T06:17:29Z
2020-04-22T04:19:52Z,42.805,6.029,13.2967,4.59974,2470.017,2020-4-22T06:20:32Z
2020-04-22T04:22:55Z,42.805,6.029,13.2968,4.59976,2470.03,2020-4-22T06:23:35Z
2020-04-22T04:25:58Z,42.805,6.029,13.2965,4.59975,2470.063,2020-4-22T06:26:39Z
2020-04-22T04:29:02Z,42.805,6.029,13.2964,4.59976,2470.077,2020-4-22T06:29:42Z
2020-04-22T04:32:05Z,42.805,6.029,13.2968,4.59978,2470.087,2020-4-22T06:32:45Z
2020-04-22T04:35:08Z,42.805,6.029,13.2967,4.59979,2470.04,2020-4-22T06:35:48Z
2020-04-22T04:38:11Z,42.805,6.029,13.2971,4.59982,2470.063,2020-4-22T06:38:51Z
2020-04-22T04:41:14Z,42.805,6.029,13.2970,4.59978,2470.11,2020-4-22T06:41:55Z
2020-04-22T04:44:18Z,42.805,6.029,13.2969,4.59981,2470.087,2020-4-22T06:44:58Z
2020-04-22T04:47:21Z,42.805,6.029,13.2966,4.59976,2470.087,2020-4-22T06:48:01Z
2020-04-22T04:50:24Z,42.805,6.029,13.2968,4.59980,2470.11,2020-4-22T06:51:04Z
2020-04-22T04:53:27Z,42.805,6.029,13.2964,4.59980,2470.087,2020-4-22T06:54:08Z
2020-04-22T04:56:31Z,42.805,6.029,13.2963,4.59979,2470.063,2020-4-22T06:57:11Z
2020-04-22T04:59:34Z,42.805,6.029,13.2968,4.59984,2470.04,2020-4-22T07:00:14Z
2020-04-22T05:02:37Z,42.805,6.029,13.2967,4.59981,2470.11,2020-4-22T07:03:17Z
2020-04-22T05:05:40Z,42.805,6.029,13.2965,4.59978,2470.077,2020-4-22T07:06:20Z
2020-04-22T05:08:44Z,42.805,6.029,13.2962,4.59985,2470.077,2020-4-22T07:09:24Z
2020-04-22T05:11:47Z,42.805,6.029,13.2965,4.59984,2470.147,2020-4-22T07:12:27Z
2020-04-22T05:14:50Z,42.805,6.029,13.2966,4.59982,2470.11,2020-4-22T07:15:30Z
2020-04-22T05:17:53Z,42.805,6.029,13.2967,4.59979,2470.133,2020-4-22T07:18:33Z
2020-04-22T05:20:56Z,42.805,6.029,13.2965,4.59982,2470.11,2020-4-22T07:21:37Z
2020-04-22T05:24:00Z,42.805,6.029,13.2968,4.59982,2470.133,2020-4-22T07:24:40Z
2020-04-22T05:27:03Z,42.805,6.029,13.2964,4.59991,2470.11,2020-4-22T07:27:43Z
2020-04-22T05:30:06Z,42.805,6.029,13.2966,4.59989,2470.18,2020-4-22T07:30:46Z
2020-04-22T05:33:09Z,42.805,6.029,13.2966,4.59985,2470.124,2020-4-22T07:33:50Z
2020-04-22T05:36:13Z,42.805,6.029,13.2965,4.59986,2470.133,2020-4-22T07:36:53Z
2020-04-22T05:39:16Z,42.805,6.029,13.2964,4.59984,2470.124,2020-4-22T07:39:56Z
2020-04-22T05:42:19Z,42.805,6.029,13.2964,4.59984,2470.147,2020-4-22T07:42:59Z
2020-04-22T05:45:22Z,42.805,6.029,13.2970,4.59980,2470.133,2020-4-22T07:46:03Z
2020-04-22T05:48:26Z,42.805,6.029,13.2971,4.59986,2470.133,2020-4-22T07:49:06Z
2020-04-22T05:51:29Z,42.805,6.029,13.2966,4.59981,2470.133,2020-4-22T07:52:09Z
2020-04-22T05:54:32Z,42.805,6.029,13.2966,4.59984,2470.147,2020-4-22T07:55:12Z
2020-04-22T05:57:35Z,42.805,6.029,13.2968,4.59981,2470.18,2020-4-22T07:58:15Z
2020-04-22T06:00:39Z,42.805,6.029,13.2966,4.59978,2470.133,2020-4-22T08:01:19Z
2020-04-22T06:03:42Z,42.805,6.029,13.2967,4.59990,2470.171,2020-4-22T08:04:22Z
2020-04-22T06:06:45Z,42.805,6.029,13.2968,4.59990,2470.147,2020-4-22T08:07:25Z
2020-04-22T06:09:48Z,42.805,6.029,13.2970,4.59988,2470.124,2020-4-22T08:10:28Z
2020-04-22T06:12:52Z,42.805,6.029,13.2964,4.59985,2470.133,2020-4-22T08:13:32Z
2020-04-22T06:15:55Z,42.805,6.029,13.2968,4.59983,2470.133,2020-4-22T08:16:35Z
2020-04-22T06:18:58Z,42.805,6.029,13.2969,4.59985,2470.171,2020-4-22T08:19:38Z
2020-04-22T06:22:01Z,42.805,6.029,13.2967,4.59988,2470.124,2020-4-22T08:22:41Z
2020-04-22T06:25:05Z,42.805,6.029,13.2965,4.59986,2470.133,2020-4-22T08:25:45Z
2020-04-22T06:28:08Z,42.805,6.029,13.2966,4.59988,2470.18,2020-4-22T08:28:48Z
2020-04-22T06:31:11Z,42.805,6.029,13.2964,4.59993,2470.171,2020-4-22T08:31:51Z
2020-04-22T06:34:14Z,42.805,6.029,13.2965,4.59976,2470.156,2020-4-22T08:34:54Z
2020-04-22T06:37:17Z,42.805,6.029,13.2969,4.59993,2470.156,2020-4-22T08:37:58Z
2020-04-22T06:40:21Z,42.805,6.029,13.2966,4.59989,2470.133,2020-4-22T08:41:01Z
2020-04-22T06:43:24Z,42.805,6.029,13.2968,4.59992,2470.156,2020-4-22T08:44:04Z
2020-04-22T06:46:27Z,42.805,6.029,13.2967,4.59981,2470.133,2020-4-22T08:47:07Z
2020-04-22T06:49:30Z,42.805,6.029,13.2966,4.59978,2470.18,2020-4-22T08:50:11Z
2020-04-22T06:52:34Z,42.805,6.029,13.2969,4.59984,2470.194,2020-4-22T08:53:14Z
2020-04-22T06:55:37Z,42.805,6.029,13.2965,4.59983,2470.156,2020-4-22T08:56:17Z
2020-04-22T06:58:40Z,42.805,6.029,13.2970,4.59984,2470.18,2020-4-22T08:59:20Z
2020-04-22T07:01:43Z,42.805,6.029,13.2965,4.59980,2470.156,2020-4-22T09:02:23Z
2020-04-22T07:04:47Z,42.805,6.029,13.2967,4.59981,2470.156,2020-4-22T09:05:27Z
2020-04-22T07:07:50Z,42.805,6.029,13.2964,4.59981,2470.156,2020-4-22T09:08:30Z
2020-04-22T07:10:53Z,42.805,6.029,13.2967,4.59983,2470.171,2020-4-22T09:11:33Z
2020-04-22T07:13:56Z,42.805,6.029,13.2968,4.59983,2470.156,2020-4-22T09:14:37Z
2020-04-22T07:17:00Z,42.805,6.029,13.2967,4.59985,2470.194,2020-4-22T09:17:40Z
2020-04-22T07:20:03Z,42.805,6.029,13.2966,4.59976,2470.194,2020-4-22T09:20:43Z
2020-04-22T07:23:06Z,42.805,6.029,13.2967,4.59984,2470.171,2020-4-22T09:23:46Z
2020-04-22T07:26:09Z,42.805,6.029,13.2966,4.59983,2470.133,2020-4-22T09:26:49Z
2020-04-22T07:29:13Z,42.805,6.029,13.2967,4.59981,2470.147,2020-4-22T09:29:53Z
2020-04-22T07:32:16Z,42.805,6.029,13.2966,4.59980,2470.171,2020-4-22T09:32:56Z
2020-04-22T07:35:19Z,42.805,6.029,13.2967,4.59975,2470.194,2020-4-22T09:35:59Z
2020-04-22T07:38:23Z,42.805,6.029,13.2971,4.59983,2470.171,2020-4-22T09:39:03Z
2020-04-22T07:41:26Z,42.805,6.029,13.2963,4.59985,2470.156,2020-4-22T09:42:06Z
2020-04-22T07:44:29Z,42.805,6.029,13.2967,4.59984,2470.156,2020-4-22T09:45:09Z
2020-04-22T07:47:32Z,42.805,6.029,13.2968,4.59981,2470.156,2020-4-22T09:48:12Z
2020-04-22T07:50:36Z,42.805,6.029,13.2966,4.59988,2470.194,2020-4-22T09:51:16Z
2020-04-22T07:53:39Z,42.805,6.029,13.2968,4.59980,2470.133,2020-4-22T09:54:19Z
2020-04-22T07:56:42Z,42.805,6.029,13.2964,4.59982,2470.133,2020-4-22T09:57:22Z
2020-04-22T07:59:45Z,42.805,6.029,13.2965,4.59981,2470.133,2020-4-22T10:00:25Z
2020-04-22T08:02:48Z,42.805,6.029,13.2967,4.59980,2470.156,2020-4-22T10:03:29Z
2020-04-22T08:05:52Z,42.805,6.029,13.2967,4.59993,2470.147,2020-4-22T10:06:32Z
2020-04-22T08:08:55Z,42.805,6.029,13.2968,4.59987,2470.171,2020-4-22T10:09:35Z
2020-04-22T08:11:58Z,42.805,6.029,13.2969,4.59981,2470.156,2020-4-22T10:12:38Z
2020-04-22T08:15:01Z,42.805,6.029,13.2966,4.59980,2470.156,2020-4-22T10:15:42Z
2020-04-22T08:18:05Z,42.805,6.029,13.2967,4.59986,2470.147,2020-4-22T10:18:45Z
2020-04-22T08:21:08Z,42.805,6.029,13.2966,4.59984,2470.147,2020-4-22T10:21:48Z
2020-04-22T08:24:11Z,42.805,6.029,13.2968,4.59978,2470.147,2020-4-22T10:24:51Z
2020-04-22T08:27:14Z,42.805,6.029,13.2970,4.59978,2470.11,2020-4-22T10:27:55Z
2020-04-22T08:30:18Z,42.805,6.029,13.2966,4.59979,2470.147,2020-4-22T10:30:58Z
2020-04-22T08:33:21Z,42.805,6.029,13.2964,4.59978,2470.124,2020-4-22T10:34:01Z
2020-04-22T08:36:24Z,42.805,6.029,13.2965,4.59978,2470.133,2020-4-22T10:37:04Z
2020-04-22T08:39:27Z,42.805,6.029,13.2968,4.59983,2470.156,2020-4-22T10:40:07Z
2020-04-22T08:42:31Z,42.805,6.029,13.2964,4.59981,2470.133,2020-4-22T10:43:11Z
2020-04-22T08:45:34Z,42.805,6.029,13.2967,4.59988,2470.133,2020-4-22T10:46:14Z
2020-04-22T08:48:37Z,42.805,6.029,13.2970,4.59993,2470.156,2020-4-22T10:49:17Z
2020-04-22T08:51:40Z,42.805,6.029,13.2964,4.59978,2470.1,2020-4-22T10:52:20Z
2020-04-22T08:54:44Z,42.805,6.029,13.2968,4.59978,2470.124,2020-4-22T10:55:24Z
2020-04-22T08:57:47Z,42.805,6.029,13.2965,4.59983,2470.087,2020-4-22T10:58:27Z
2020-04-22T09:00:50Z,42.805,6.029,13.2968,4.59986,2470.096,2020-4-22T11:01:30Z
2020-04-22T09:03:53Z,42.805,6.029,13.2968,4.59982,2470.133,2020-4-22T11:04:33Z
2020-04-22T09:06:57Z,42.805,6.029,13.2965,4.59990,2470.1,2020-4-22T11:07:37Z
2020-04-22T09:10:00Z,42.805,6.029,13.2967,4.59980,2470.1,2020-4-22T11:10:40Z
2020-04-22T09:13:03Z,42.805,6.029,13.2967,4.59984,2470.124,2020-4-22T11:13:43Z
2020-04-22T09:16:06Z,42.805,6.029,13.2968,4.59986,2470.11,2020-4-22T11:16:46Z
2020-04-22T09:19:09Z,42.805,6.029,13.2966,4.59992,2470.11,2020-4-22T11:19:50Z
2020-04-22T09:22:13Z,42.805,6.029,13.2967,4.59986,2470.087,2020-4-22T11:22:53Z
2020-04-22T09:25:16Z,42.805,6.029,13.2965,4.59980,2470.124,2020-4-22T11:25:56Z
2020-04-22T09:28:19Z,42.805,6.029,13.2964,4.59983,2470.11,2020-4-22T11:28:59Z
2020-04-22T09:31:22Z,42.805,6.029,13.2965,4.59990,2470.11,2020-4-22T11:32:03Z
2020-04-22T09:34:26Z,42.805,6.029,13.2967,4.59982,2470.1,2020-4-22T11:35:06Z
2020-04-22T09:37:29Z,42.805,6.029,13.2967,4.59989,2470.063,2020-4-22T11:38:09Z
2020-04-22T09:40:32Z,42.805,6.029,13.2965,4.59996,2470.087,2020-4-22T11:41:12Z
2020-04-22T09:43:36Z,42.805,6.029,13.2967,4.59988,2470.11,2020-4-22T11:44:16Z
2020-04-22T09:46:39Z,42.805,6.029,13.2964,4.60007,2470.1,2020-4-22T11:47:19Z
2020-04-22T09:49:42Z,42.805,6.029,13.2968,4.60005,2470.1,2020-4-22T11:50:22Z
2020-04-22T09:52:45Z,42.805,6.029,13.2967,4.60007,2470.087,2020-4-22T11:53:25Z
2020-04-22T09:55:48Z,42.805,6.029,13.2968,4.60006,2470.1,2020-4-22T11:56:29Z
2020-04-22T09:58:52Z,42.805,6.029,13.2967,4.60005,2470.04,2020-4-22T11:59:32Z
2020-04-22T10:01:55Z,42.805,6.029,13.2966,4.59999,2470.1,2020-4-22T12:02:35Z
2020-04-22T10:04:58Z,42.805,6.029,13.2969,4.60003,2470.077,2020-4-22T12:05:38Z
2020-04-22T10:08:01Z,42.805,6.029,13.2966,4.60033,2470.077,2020-4-22T12:08:42Z
2020-04-22T10:11:05Z,42.805,6.029,13.2967,4.59999,2470.063,2020-4-22T12:11:45Z
2020-04-22T10:14:08Z,42.805,6.029,13.2971,4.60010,2470.087,2020-4-22T12:14:48Z
2020-04-22T10:17:11Z,42.805,6.029,13.2968,4.60021,2470.063,2020-4-22T12:17:51Z
2020-04-22T10:20:14Z,42.805,6.029,13.2968,4.60020,2470.04,2020-4-22T12:20:55Z
2020-04-22T10:23:18Z,42.805,6.029,13.2972,4.60027,2470.04,2020-4-22T12:23:58Z
2020-04-22T10:26:21Z,42.805,6.029,13.2967,4.60024,2470.063,2020-4-22T12:27:01Z
2020-04-22T10:29:24Z,42.805,6.029,13.2971,4.60011,2470.077,2020-4-22T12:30:04Z
2020-04-22T10:32:28Z,42.805,6.029,13.2968,4.60003,2470.053,2020-4-22T12:33:08Z
2020-04-22T10:35:31Z,42.805,6.029,13.2964,4.60018,2470.04,2020-4-22T12:36:11Z
2020-04-22T10:38:34Z,42.805,6.029,13.2967,4.60026,2470.087,2020-4-22T12:39:14Z
2020-04-22T10:41:37Z,42.805,6.029,13.2967,4.60036,2470.063,2020-4-22T12:42:17Z
2020-04-22T10:44:41Z,42.805,6.029,13.2970,4.60047,2470.017,2020-4-22T12:45:21Z
2020-04-22T10:47:44Z,42.805,6.029,13.2968,4.60069,2470.04,2020-4-22T12:48:24Z
2020-04-22T10:50:47Z,42.805,6.029,13.2968,4.60058,2470.053,2020-4-22T12:51:27Z
2020-04-22T10:53:50Z,42.805,6.029,13.2965,4.60059,2470.03,2020-4-22T12:54:30Z
2020-04-22T10:56:54Z,42.805,6.029,13.2966,4.60051,2470.04,2020-4-22T12:57:34Z
2020-04-22T10:59:57Z,42.805,6.029,13.2967,4.60046,2470.017,2020-4-22T13:00:37Z
2020-04-22T11:03:00Z,42.805,6.029,13.2971,4.60053,2470.017,2020-4-22T13:03:40Z
2020-04-22T11:06:03Z,42.805,6.029,13.2968,4.60057,2470.04,2020-4-22T13:06:43Z
2020-04-22T11:09:06Z,42.805,6.029,13.2967,4.60052,2470.03,2020-4-22T13:09:47Z
2020-04-22T11:12:10Z,42.805,6.029,13.2969,4.60051,2469.993,2020-4-22T13:12:50Z
2020-04-22T11:15:13Z,42.805,6.029,13.2967,4.60057,2470.03,2020-4-22T13:15:53Z
2020-04-22T11:18:16Z,42.805,6.029,13.2969,4.60049,2470.03,2020-4-22T13:18:56Z
2020-04-22T11:21:19Z,42.805,6.029,13.2967,4.60044,2470.007,2020-4-22T13:22:00Z
2020-04-22T11:24:23Z,42.805,6.029,13.2964,4.60054,2470.017,2020-4-22T13:25:03Z
2020-04-22T11:27:26Z,42.805,6.029,13.2972,4.60064,2470.003,2020-4-22T13:28:06Z
2020-04-22T11:30:29Z,42.805,6.029,13.2965,4.60041,2470.03,2020-4-22T13:31:09Z
2020-04-22T11:33:32Z,42.805,6.029,13.2963,4.60082,2469.993,2020-4-22T13:34:12Z
2020-04-22T11:36:35Z,42.805,6.029,13.2966,4.60054,2470.03,2020-4-22T13:37:16Z
2020-04-22T11:39:39Z,42.805,6.029,13.2965,4.60087,2470.007,2020-4-22T13:40:19Z
2020-04-22T11:42:42Z,42.805,6.029,13.2967,4.60059,2470.017,2020-4-22T13:43:22Z
2020-04-22T11:45:46Z,42.805,6.029,13.2968,4.60041,2470.03,2020-4-22T13:46:26Z
2020-04-22T11:48:49Z,42.805,6.029,13.2971,4.60042,2470.03,2020-4-22T13:49:29Z
2020-04-22T11:51:52Z,42.805,6.029,13.2970,4.60029,2470.017,2020-4-22T13:52:32Z
2020-04-22T11:54:55Z,42.805,6.029,13.2967,4.60019,2470.053,2020-4-22T13:55:35Z
2020-04-22T11:57:58Z,42.805,6.029,13.2965,4.60016,2469.993,2020-4-22T13:58:39Z
2020-04-22T12:01:02Z,42.805,6.029,13.2964,4.60009,2470.007,2020-4-22T14:01:42Z
2020-04-22T12:04:05Z,42.805,6.029,13.2968,4.60024,2470.03,2020-4-22T14:04:45Z
2020-04-22T12:07:08Z,42.805,6.029,13.2969,4.60040,2470.017,2020-4-22T14:07:48Z
2020-04-22T12:10:11Z,42.805,6.029,13.2967,4.60071,2470.017,2020-4-22T14:10:52Z
2020-04-22T12:13:15Z,42.805,6.029,13.2968,4.60071,2470.017,2020-4-22T14:13:55Z
2020-04-22T12:16:18Z,42.805,6.029,13.2965,4.60056,2469.979,2020-4-22T14:16:58Z
2020-04-22T12:19:21Z,42.805,6.029,13.2968,4.60054,2470.007,2020-4-22T14:20:01Z
2020-04-22T12:22:25Z,42.805,6.029,13.2970,4.60016,2469.947,2020-4-22T14:23:05Z
2020-04-22T12:25:28Z,42.805,6.029,13.2966,4.60015,2470.017,2020-4-22T14:26:08Z
2020-04-22T12:28:31Z,42.805,6.029,13.2968,4.60028,2470.007,2020-4-22T14:29:11Z
2020-04-22T12:31:34Z,42.805,6.029,13.2966,4.60003,2469.993,2020-4-22T14:32:14Z
2020-04-22T12:34:38Z,42.805,6.029,13.2970,4.59997,2469.993,2020-4-22T14:35:18Z
2020-04-22T12:37:41Z,42.805,6.029,13.2967,4.59998,2470.007,2020-4-22T14:38:21Z
2020-04-22T12:40:44Z,42.805,6.029,13.2965,4.59996,2469.97,2020-4-22T14:41:24Z
2020-04-22T12:43:47Z,42.805,6.029,13.2967,4.59996,2470.007,2020-4-22T14:44:27Z
2020-04-22T12:46:50Z,42.805,6.029,13.2967,4.59993,2470.007,2020-4-22T14:47:31Z
2020-04-22T12:49:54Z,42.805,6.029,13.2966,4.59991,2469.97,2020-4-22T14:50:34Z
2020-04-22T12:52:57Z,42.805,6.029,13.2968,4.59983,2469.993,2020-4-22T14:53:37Z
2020-04-22T12:56:00Z,42.805,6.029,13.2964,4.59988,2469.96,2020-4-22T14:56:40Z
2020-04-22T12:59:03Z,42.805,6.029,13.2968,4.59986,2469.993,2020-4-22T14:59:44Z
2020-04-22T13:02:07Z,42.805,6.029,13.2967,4.59985,2469.97,2020-4-22T15:02:47Z
2020-04-22T13:05:10Z,42.805,6.029,13.2963,4.59989,2469.993,2020-4-22T15:05:50Z
2020-04-22T13:08:13Z,42.805,6.029,13.2965,4.59993,2469.97,2020-4-22T15:08:53Z
2020-04-22T13:11:16Z,42.805,6.029,13.2968,4.59981,2469.993,2020-4-22T15:11:57Z
2020-04-22T13:14:20Z,42.805,6.029,13.2968,4.59986,2470.007,2020-4-22T15:15:00Z
2020-04-22T13:17:23Z,42.805,6.029,13.2961,4.59986,2469.984,2020-4-22T15:18:03Z
2020-04-22T13:20:26Z,42.805,6.029,13.2968,4.59983,2469.947,2020-4-22T15:21:06Z
2020-04-22T13:23:29Z,42.805,6.029,13.2967,4.59981,2470.017,2020-4-22T15:24:10Z
2020-04-22T13:26:33Z,42.805,6.029,13.2969,4.59978,2469.97,2020-4-22T15:27:13Z
2020-04-22T13:29:36Z,42.805,6.029,13.2968,4.59980,2469.993,2020-4-22T15:30:16Z
2020-04-22T13:32:39Z,42.805,6.029,13.2965,4.59978,2469.993,2020-4-22T15:33:19Z
2020-04-22T13:35:42Z,42.805,6.029,13.2969,4.59978,2470.017,2020-4-22T15:36:22Z
2020-04-22T13:38:46Z,42.805,6.029,13.2968,4.59979,2470.03,2020-4-22T15:39:26Z
2020-04-22T13:41:49Z,42.805,6.029,13.2962,4.59982,2470.007,2020-4-22T15:42:29Z
2020-04-22T13:44:52Z,42.805,6.029,13.2964,4.59978,2470.007,2020-4-22T15:45:32Z
2020-04-22T13:47:55Z,42.805,6.029,13.2964,4.59978,2469.97,2020-4-22T15:48:36Z
2020-04-22T13:50:59Z,42.805,6.029,13.2967,4.59978,2469.993,2020-4-22T15:51:39Z
2020-04-22T13:54:02Z,42.805,6.029,13.2967,4.59978,2470.003,2020-4-22T15:54:42Z
2020-04-22T13:57:05Z,42.805,6.029,13.2967,4.59977,2469.993,2020-4-22T15:57:45Z
2020-04-22T14:00:08Z,42.805,6.029,13.2964,4.59976,2470.03,2020-4-22T16:00:48Z
2020-04-22T14:03:11Z,42.805,6.029,13.2963,4.59978,2469.97,2020-4-22T16:03:52Z
2020-04-22T14:06:15Z,42.805,6.029,13.2968,4.59977,2470.017,2020-4-22T16:06:55Z
2020-04-22T14:09:18Z,42.805,6.029,13.2967,4.59976,2469.993,2020-4-22T16:09:58Z
2020-04-22T14:12:21Z,42.805,6.029,13.2966,4.59976,2469.993,2020-4-22T16:13:01Z
2020-04-22T14:15:24Z,42.805,6.029,13.2969,4.59975,2469.97,2020-4-22T16:16:05Z
2020-04-22T14:18:28Z,42.805,6.029,13.2967,4.59976,2469.947,2020-4-22T16:19:08Z
2020-04-22T14:21:31Z,42.805,6.029,13.2967,4.59974,2470.053,2020-4-22T16:22:11Z
2020-04-22T14:24:34Z,42.805,6.029,13.2971,4.59979,2469.993,2020-4-22T16:25:14Z
2020-04-22T14:27:38Z,42.805,6.029,13.2967,4.59981,2470.03,2020-4-22T16:28:18Z
2020-04-22T14:30:41Z,42.805,6.029,13.2967,4.59976,2469.979,2020-4-22T16:31:21Z
2020-04-22T14:33:44Z,42.805,6.029,13.2967,4.59975,2469.993,2020-4-22T16:34:24Z
2020-04-22T14:36:47Z,42.805,6.029,13.2968,4.59975,2470.007,2020-4-22T16:37:27Z
2020-04-22T14:39:51Z,42.805,6.029,13.2967,4.59976,2469.993,2020-4-22T16:40:31Z
2020-04-22T14:42:54Z,42.805,6.029,13.2967,4.59978,2469.993,2020-4-22T16:43:34Z
2020-04-22T14:45:57Z,42.805,6.029,13.2966,4.59975,2469.984,2020-4-22T16:46:37Z
2020-04-22T14:49:00Z,42.805,6.029,13.2971,4.59978,2469.984,2020-4-22T16:49:40Z
2020-04-22T14:52:03Z,42.805,6.029,13.2967,4.59976,2470.007,2020-4-22T16:52:44Z
2020-04-22T14:55:07Z,42.805,6.029,13.2969,4.59977,2470.03,2020-4-22T16:55:47Z
2020-04-22T14:58:10Z,42.805,6.029,13.2966,4.59974,2470.003,2020-4-22T16:58:50Z
2020-04-22T15:01:13Z,42.805,6.029,13.2965,4.59976,2469.97,2020-4-22T17:01:53Z
2020-04-22T15:04:16Z,42.805,6.029,13.2968,4.59975,2469.993,2020-4-22T17:04:56Z
2020-04-22T15:07:19Z,42.805,6.029,13.2970,4.59976,2470.007,2020-4-22T17:08:00Z
2020-04-22T15:10:23Z,42.805,6.029,13.2967,4.59974,2469.993,2020-4-22T17:11:03Z
2020-04-22T15:13:26Z,42.805,6.029,13.2967,4.59976,2470.017,2020-4-22T17:14:06Z